Date String (YYYY-MM-DD hh:mm:ss) UTC,Instrument flags,Ambient pressure (hPa),Sample flow (lpm),Bypass flow (lpm),Sample temperature (°C),Ambient temperature (°C),ASC tube jacket temperature (°C),LED temperature (°C),Box temperature (°C),Sample RH (%),Span deviation,Mass concentration (μg/m³),Mass concentration (μg/m³),Mass concentration (μg/m³)
DateTimeUTC,F1_M11,P_M11,Q1_M11,Q2_M11,T1_M11,T2_M11,T3_M11,T4_M11,T5_M11,U1_M11,ZSPAN_M11,X0_M11,X2_M11,X1_M11
2022-10-22 10:00:00,,0812.9,5.00,0.00,27.9,26.2,00.0,37.0,29.7,08.9,0000.0,0014.82,0006.07,0005.37
2022-10-22 10:01:00,,0812.9,5.00,0.00,27.9,26.2,00.0,37.0,29.7,09.0,0000.0,0015.67,0006.09,0005.35
2022-10-22 10:02:00,,0812.8,4.99,0.00,27.9,26.2,00.0,37.0,29.7,08.9,0000.0,0015.73,0006.02,0005.34
2022-10-22 10:03:00,,0812.9,5.01,0.00,27.9,26.2,00.0,37.0,29.7,08.7,0000.0,0016.32,0006.06,0005.39
2022-10-22 10:04:00,,0813.1,4.98,0.00,27.9,26.2,00.0,37.0,29.7,08.8,0000.0,0016.44,0006.17,0005.46
2022-10-22 10:05:00,,0813.0,5.00,0.00,27.9,26.2,00.0,37.0,29.7,09.0,0000.0,0017.08,0006.19,0005.46
2022-10-22 10:06:00,,0813.0,5.00,0.00,27.9,26.2,00.0,37.0,29.7,09.1,0000.0,0016.58,0005.99,0005.28
2022-10-22 10:07:00,,0812.9,4.99,0.00,27.9,26.2,00.0,37.0,29.7,09.2,0000.0,0016.92,0005.79,0005.11
2022-10-22 10:08:00,,0813.0,4.99,0.00,27.9,26.2,00.0,37.0,29.7,09.2,0000.0,0015.81,0005.62,0005.01
2022-10-22 10:09:00,,0812.9,5.01,0.00,27.9,26.2,00.0,37.0,29.7,09.2,0000.0,0017.21,0005.54,0004.92
2022-10-22 10:10:00,,0813.0,4.98,0.00,27.9,26.2,00.0,37.0,29.7,09.3,0000.0,0018.06,0005.54,0004.87
2022-10-22 10:11:00,,0813.0,5.02,0.00,27.9,26.2,00.0,37.0,29.7,09.3,0000.0,0017.28,0005.56,0004.84
2022-10-22 10:12:00,,0813.0,4.98,0.00,27.9,26.2,00.0,37.0,29.7,09.4,0000.0,0017.04,0005.53,0004.82
2022-10-22 10:13:00,,0812.8,5.01,0.00,27.9,26.2,00.0,36.9,29.7,09.4,0000.0,0016.90,0005.46,0004.78
2022-10-22 10:14:00,,0812.8,4.99,0.00,27.9,26.2,00.0,37.0,29.7,09.4,0000.0,0016.49,0005.40,0004.66
2022-10-22 10:15:00,,0812.9,5.01,0.00,27.9,26.2,00.0,37.0,29.7,09.4,0000.0,0017.03,0005.40,0004.57
2022-10-22 10:16:00,,0812.9,4.98,0.00,27.9,26.2,00.0,36.9,29.7,09.4,0000.0,0016.59,0005.42,0004.52
2022-10-22 10:17:00,,0812.9,5.02,0.00,27.9,26.1,00.0,36.9,29.7,09.4,0000.0,0016.26,0005.46,0004.52
2022-10-22 10:18:00,,0813.0,4.99,0.00,27.9,26.1,00.0,36.9,29.7,09.5,0000.0,0014.54,0005.47,0004.52
2022-10-22 10:19:00,,0813.0,4.99,0.00,27.9,26.1,00.0,36.9,29.7,09.5,0000.0,0014.32,0005.50,0004.51
2022-10-22 10:20:00,,0813.0,5.00,0.00,27.9,26.1,00.0,36.9,29.7,09.5,0000.0,0012.85,0005.46,0004.50
2022-10-22 10:21:00,,0813.0,5.00,0.00,27.9,26.1,00.0,36.9,29.7,09.4,0000.0,0011.62,0005.41,0004.51
2022-10-22 10:22:00,,0812.9,5.01,0.00,27.9,26.2,00.0,36.9,29.7,09.4,0000.0,0011.51,0005.41,0004.52
2022-10-22 10:23:00,,0813.1,4.98,0.00,27.9,26.1,00.0,36.9,29.7,09.3,0000.0,0011.06,0005.48,0004.59
2022-10-22 10:24:00,,0813.1,5.02,0.00,27.8,26.1,00.0,36.9,29.7,09.4,0000.0,0010.92,0005.56,0004.64
2022-10-22 10:25:00,,0813.0,5.00,0.00,27.8,26.1,00.0,36.9,29.7,09.5,0000.0,0011.18,0005.57,0004.67
2022-10-22 10:26:00,,0813.0,4.99,0.00,27.8,26.1,00.0,36.9,29.7,09.4,0000.0,0011.38,0005.50,0004.71
2022-10-22 10:27:00,,0813.0,5.02,0.00,27.8,26.1,00.0,36.9,29.6,09.4,0000.0,0010.67,0005.44,0004.76
2022-10-22 10:28:00,,0813.2,4.99,0.00,27.8,26.2,00.0,36.9,29.7,09.4,0000.0,0010.54,0005.44,0004.80
2022-10-22 10:29:00,,0813.2,5.01,0.00,27.8,26.2,00.0,36.9,29.7,09.4,0000.0,0010.77,0005.44,0004.84
2022-10-22 10:30:00,,0813.1,5.00,0.00,27.9,26.2,00.0,36.9,29.7,09.4,0000.0,0010.81,0005.47,0004.90
2022-10-22 10:31:00,,0813.1,4.98,0.00,27.9,26.2,00.0,36.9,29.7,09.4,0000.0,0010.91,0005.54,0004.96
2022-10-22 10:32:00,,0813.1,5.02,0.00,27.9,26.2,00.0,36.9,29.7,09.3,0000.0,0011.16,0005.61,0005.01
2022-10-22 10:33:00,,0813.2,4.99,0.00,27.9,26.2,00.0,36.9,29.7,09.4,0000.0,0011.10,0005.59,0005.03
2022-10-22 10:34:00,,0813.2,5.00,0.00,27.9,26.2,00.0,36.9,29.7,09.5,0000.0,0010.91,0005.50,0004.99
2022-10-22 10:35:00,,0813.2,5.02,0.00,27.9,26.2,00.0,36.9,29.7,09.5,0000.0,0010.73,0005.42,0004.94
2022-10-22 10:36:00,,0813.2,4.99,0.00,27.9,26.3,00.0,36.9,29.7,09.5,0000.0,0010.12,0005.39,0004.93
2022-10-22 10:37:00,,0813.2,4.99,0.00,27.9,26.3,00.0,36.9,29.8,09.4,0000.0,0009.58,0005.41,0004.93
2022-10-22 10:38:00,,0813.3,5.02,0.00,27.9,26.3,00.0,36.9,29.8,09.3,0000.0,0009.12,0005.42,0004.95
2022-10-22 10:39:00,,0813.4,4.99,0.00,27.9,26.3,00.0,36.9,29.8,09.3,0000.0,0009.39,0005.45,0005.00
2022-10-22 10:40:00,,0813.3,4.99,0.00,27.9,26.3,00.0,36.9,29.8,09.2,0000.0,0009.23,0005.51,0005.08
2022-10-22 10:41:00,,0813.3,5.02,0.00,27.9,26.3,00.0,36.9,29.8,09.2,0000.0,0009.16,0005.57,0005.14
2022-10-22 10:42:00,,0813.2,4.99,0.00,27.9,26.3,00.0,36.9,29.8,09.2,0000.0,0009.28,0005.60,0005.21
2022-10-22 10:43:00,,0813.3,5.00,0.00,27.9,26.3,00.0,36.9,29.8,09.1,0000.0,0009.42,0005.64,0005.25
2022-10-22 10:44:00,,0813.3,5.00,0.00,27.9,26.3,00.0,36.9,29.8,09.1,0000.0,0009.56,0005.77,0005.37
2022-10-22 10:45:00,,0813.3,4.99,0.00,27.9,26.3,00.0,36.9,29.8,09.1,0000.0,0009.66,0005.91,0005.50
2022-10-22 10:46:00,,0813.3,4.99,0.00,27.9,26.3,00.0,36.9,29.8,09.1,0000.0,0009.86,0006.05,0005.64
2022-10-22 10:47:00,,0813.3,4.99,0.00,27.9,26.3,00.0,36.9,29.8,09.2,0000.0,0010.00,0006.18,0005.75
2022-10-22 10:48:00,,0813.4,5.02,0.00,27.9,26.3,00.0,36.9,29.7,09.2,0000.0,0009.92,0006.23,0005.83
2022-10-22 10:49:00,,0813.3,4.99,0.00,27.9,26.3,00.0,36.9,29.8,09.1,0000.0,0010.15,0006.27,0005.89
2022-10-22 10:50:00,,0813.2,5.00,0.00,28.0,26.3,00.0,36.9,29.8,09.1,0000.0,0009.82,0006.33,0005.94
2022-10-22 10:51:00,,0813.3,5.02,0.00,28.0,26.3,00.0,36.9,29.8,09.0,0000.0,0009.79,0006.42,0006.02
2022-10-22 10:52:00,,0813.3,4.99,0.00,28.0,26.3,00.0,36.9,29.8,09.0,0000.0,0009.80,0006.46,0006.06
2022-10-22 10:53:00,,0813.3,5.00,0.00,28.0,26.3,00.0,36.9,29.7,09.0,0000.0,0009.62,0006.52,0006.12
2022-10-22 10:54:00,,0813.2,5.02,0.00,28.0,26.3,00.0,36.9,29.7,09.0,0000.0,0009.45,0006.61,0006.21
2022-10-22 10:55:00,,0813.1,5.00,0.00,28.0,26.4,00.0,36.9,29.8,08.9,0000.0,0009.50,0006.68,0006.28
2022-10-22 10:56:00,,0813.1,4.99,0.00,28.0,26.4,00.0,36.9,29.9,08.9,0000.0,0009.89,0006.80,0006.39
2022-10-22 10:57:00,,0813.2,4.99,0.00,28.0,26.4,00.0,36.9,29.9,08.7,0000.0,0010.05,0006.92,0006.52
2022-10-22 10:58:00,,0813.3,5.01,0.00,28.0,26.4,00.0,36.9,29.8,08.8,0000.0,0010.18,0007.08,0006.70
2022-10-22 10:59:00,,0813.2,4.99,0.00,28.0,26.4,00.0,36.9,29.9,08.8,0000.0,0010.48,0007.29,0006.89
